Location: York
(31.8935°S, 116.7682°E)
Time: 16:24:14
(UTC+08:00)

S-56A Canister/Altair - Visible Passes

Search period start: 25 September 2022 00:00
Search period end: 05 October 2022 00:00
Orbit: 637 x 2496 km, 38.9° (Epoch: 24 September)

Date Brightness Start Highest point End Pass type
(mag) Time Alt. Az. Time Alt. Az. Time Alt. Az.
25 Sep 10.1 18:33:04 10° WSW 18:45:15 65° S 18:59:50 12° E visible
25 Sep 9.8 20:38:54 10° WSW 20:53:12 90° SE 20:57:15 60° ENE visible
25 Sep 10.7 22:45:44 10° WSW 22:54:40 37° W 22:54:40 37° W visible
26 Sep 9.9 20:05:43 10° WSW 20:19:29 85° SSE 20:26:16 43° ENE visible
26 Sep 10.3 22:12:07 10° WSW 22:23:42 48° WNW 22:23:42 48° WNW visible
27 Sep 9.9 19:32:37 10° WSW 19:45:48 81° SSE 19:55:20 30° ENE visible
27 Sep 10.1 21:38:38 10° WSW 21:52:41 56° NW 21:52:45 56° NW visible
27 Sep 11.6 23:48:34 10° W 23:50:11 13° W 23:50:11 13° W visible
28 Sep 9.9 18:59:36 10° WSW 19:12:08 77° SSE 19:24:27 19° ENE visible
28 Sep 10.0 21:05:17 10° WSW 21:19:09 62° NW 21:21:52 56° N visible
28 Sep 11.3 23:14:05 10° W 23:19:18 19° WNW 23:19:18 19° WNW visible
29 Sep 9.9 18:26:40 10° WSW 18:38:30 74° SSE 18:53:37 10° ENE visible
29 Sep 10.0 20:32:03 10° WSW 20:45:35 67° NW 20:51:03 46° NNE visible
29 Sep 11.0 22:39:57 10° W 22:48:29 25° WNW 22:48:29 25° WNW visible
30 Sep 10.0 19:58:54 10° WSW 20:12:00 72° NNW 20:20:17 34° NE visible
30 Sep 10.8 22:06:04 10° W 22:17:44 31° NW 22:17:44 31° NW visible
01 Oct 9.9 19:25:53 10° WSW 19:38:26 78° NNW 19:49:35 23° NE visible
01 Oct 10.7 21:32:24 10° WSW 21:44:32 35° NW 21:47:02 33° NNW visible
02 Oct 9.9 18:52:57 10° WSW 19:04:54 83° NNW 19:18:58 13° ENE visible
02 Oct 10.6 20:58:56 10° WSW 21:11:08 39° NW 21:16:25 31° N visible
03 Oct 9.9 18:20:06 10° WSW 18:31:25 88° NNW 18:46:29 10° ENE visible
03 Oct 10.5 20:25:37 10° WSW 20:37:42 44° NW 20:45:53 26° NNE visible
03 Oct 11.5 22:38:10 10° WNW 22:42:58 12° NW 22:43:20 12° NW visible
04 Oct 10.4 19:52:26 10° WSW 20:04:16 48° NW 20:15:24 18° NNE visible
04 Oct 11.4 22:02:44 10° WNW 22:09:43 15° NW 22:12:52 14° NW visible
